#timestamp,LO_Frequency,Hit,StdDev 
1658872815.1,286047002.6,N
1658872835.8,286047002.8,N
1658872855.7,286046998.5,N
1658872875.5,286047000.6,N
1658872895.4,286047002.3,N
1658872915.2,286046996.9,N
1658872935.0,286046998.9,N
1658872935.9,286046998.9,N
1658872955.8,286046998.4,N
1658872975.6,286046999.7,N
1658872995.4,286047002.5,N
1658873015.3,286047001.0,N
1658873035.1,286047001.6,N
1658873055.9,286047000.3,N
1658873075.7,286047000.5,N
1658873095.5,286046996.9,N
1658873115.4,286047001.1,N
1658873135.2,286046998.5,N
1658873155.0,286046999.7,N
1658873156.0,286046999.7,N
1658873175.8,286046999.7,N
1658873195.6,286046998.6,N
1658873215.5,286047000.7,N
1658873235.3,286046998.2,N
1658873255.1,286047002.5,N
1658873275.9,286047004.0,N
1658873295.7,286047003.5,N
1658873315.6,286047003.0,N
1658873335.4,286047004.3,N
1658873355.2,286047001.4,N
1658873375.1,286047003.1,N
1658873376.0,286047003.1,N
1658873395.8,286047004.2,N
1658873415.7,286047004.3,N
1658873435.5,286047004.1,N
1658873455.3,286047004.4,N
1658873475.2,286047006.0,N
1658873495.0,286047004.4,N
1658873495.9,286047004.4,N
1658873515.7,286047000.9,N
1658873535.6,286046998.6,N
1658873555.4,286047001.2,N
1658873575.3,286046998.7,N
1658873595.1,286046999.0,N
1658873615.8,286046998.2,N
1658873635.7,286046998.3,N
1658873655.5,286046996.7,N
1658873675.4,286046999.4,N
1658873695.2,286046998.4,N
1658873715.0,286046999.2,N
1658873715.9,286046999.2,N
1658873735.8,286046997.9,N
1658873755.6,286046993.8,N
1658873775.4,286046993.1,N
1658873795.3,286046992.4,N
1658873815.1,286046989.4,N
1658873835.9,286046987.3,Y
1658873855.7,286046987.6,P
1658873875.5,286046988.0,N
1658873895.4,286046989.8,N
1658873915.2,286046988.7,N
1658873935.0,286046989.1,N
1658873935.9,286046989.1,N
1658873955.8,286046989.8,N
1658873975.6,286046990.0,N
1658873995.5,286046990.8,N
1658874015.3,286046992.8,N
1658874035.1,286046994.2,N
1658874055.9,286046994.4,N
1658874075.7,286046993.9,N
1658874095.6,286046995.4,N
1658874115.4,286046997.8,N
1658874135.2,286046997.8,N
1658874155.1,286046996.9,N
1658874156.0,286046996.9,N
1658874175.8,286046995.4,N
1658874195.6,286046997.7,N
1658874215.5,286046997.4,N
1658874235.3,286046998.0,N
1658874255.2,286046997.1,N
1658874275.9,286046996.5,N
1658874295.7,286046995.4,N
1658874315.6,286046997.1,N
1658874335.4,286046997.9,N
1658874355.2,286046999.0,N
1658874375.1,286046997.3,N
1658874376.0,286046997.3,N
1658874395.8,286046997.4,N
1658874415.7,286046994.9,N
1658874435.5,286046997.3,N
1658874455.3,286047000.4,N
1658874475.2,286046998.6,N
1658874495.0,286047002.8,N
1658874495.9,286047002.8,N
1658874515.7,286047001.6,N
1658874535.6,286047002.5,N
1658874555.4,286047002.5,N
1658874575.3,286047000.5,N
1658874595.1,286047000.7,N
1658874596.0,286047000.7,N
1658874615.8,286047002.5,N
1658874635.7,286046999.7,N
1658874655.5,286047002.5,N
1658874675.4,286047000.7,N
1658874695.2,286046998.2,N
1658874715.0,286047001.1,N
1658874715.9,286047001.1,N
1658874735.8,286047000.6,N
1658874755.6,286046999.7,N
1658874775.4,286047001.7,N
1658874795.3,286046998.2,N
1658874815.1,286046998.6,N
1658874835.9,286046999.6,N
1658874855.7,286047000.0,N
1658874875.5,286046996.6,N
1658874895.4,286046999.4,N
1658874915.2,286046998.8,N
1658874935.0,286046998.4,N
1658874935.9,286046998.4,N
1658874955.8,286046996.9,N
1658874975.6,286047000.9,N
1658874995.5,286047001.2,N
1658875015.3,286047000.6,N
1658875035.1,286047001.2,N
1658875055.9,286046997.8,N
1658875075.7,286046998.5,N
1658875095.6,286047001.1,N
1658875115.4,286046997.4,N
1658875135.2,286046994.9,Y
1658875155.1,286046997.6,P
1658875156.0,286046997.6,N
1658875175.8,286046997.6,N
1658875195.7,286046996.7,Y
1658875215.5,286047001.1,P
1658875235.3,286046996.6,N
1658875255.2,286046997.1,N
1658875275.0,286046993.6,Y
1658875275.9,286046993.6,P
1658875295.7,286046995.6,N
1658875315.6,286046999.0,N
1658875335.4,286046998.3,N
1658875355.3,286046998.1,N
1658875375.1,286046999.0,N
1658875395.8,286046999.5,N
1658875415.7,286046996.8,N
1658875435.5,286046994.9,N
1658875455.4,286046997.3,N
1658875475.2,286046997.4,N
1658875495.0,286046997.8,N
1658875495.9,286046997.8,N
1658875515.8,286046995.6,N
1658875535.6,286046995.2,N
1658875555.5,286046996.9,N
1658875575.3,286046998.8,N
1658875595.1,286047000.8,N
1658875615.9,286047000.6,N
1658875635.7,286047001.9,N
1658875655.5,286047004.4,N
1658875675.4,286047004.0,N
1658875695.2,286047003.7,N
1658875715.1,286047002.6,N
1658875716.0,286047002.6,N
1658875735.8,286047001.4,N
1658875755.6,286047003.9,N
1658875775.5,286046999.8,N
1658875795.3,286047001.3,N
1658875815.2,286047002.5,N
1658875835.9,286046999.8,N
1658875855.7,286047002.6,N
1658875875.6,286047004.1,N
1658875895.4,286046999.9,N
1658875915.2,286047002.8,N
1658875935.1,286047000.9,N
1658875936.0,286047000.9,N
1658875955.8,286046998.8,N
1658875975.7,286047002.3,N
1658875995.5,286046999.7,N
1658876015.3,286047002.4,N
1658876035.2,286046999.8,N
1658876055.0,286047000.2,N
1658876055.9,286047000.2,N
1658876075.8,286047003.3,N
1658876095.6,286047002.4,N
1658876115.4,286047000.1,N
1658876135.3,286047002.1,N
1658876155.1,286047001.3,N
1658876175.8,286047004.1,N
1658876195.7,286047006.0,Y
1658876215.5,286047004.4,P
1658876235.4,286047004.3,P
1658876255.2,286047004.2,P
1658876275.0,286047003.8,Y
1658876275.9,286047003.8,P
1658876295.8,286046996.6,P
1658876315.6,286046995.2,N
1658876335.4,286046995.7,N
1658876355.3,286046998.0,N
1658876375.1,286046995.2,N
1658876395.9,286046995.0,N
